Regional Weather Roundup
Issued by NWS

Home | Current Version | Previous Version | Graphics & Text | Print | Product List | Glossary On
Versions: 1 2 3 4 5 6 7 8 9 10 11 12 13 14 15 16 17 18 19 20 21 22 23 24 25 26 27 28 29 30 31 32 33 34 35 36 37 38 39 40 41 42 43 44 45 46 47 48 49 50
004
ASUS43 KMKX 210710
RWRWI

WISCONSIN REGIONAL WEATHER ROUNDUP
NATIONAL WEATHER SERVICE MILWAUKEE/SULLIVAN WI
100 AM CST WED FEB 21 2018

NOTE: "FAIR" INDICATES FEW OR NO CLOUDS BELOW 12,000 FEET WITH NO
SIGNIFICANT WEATHER AND/OR OBSTRUCTIONS TO VISIBILITY.

WIZ001-002-006>008-014>016-023>028-210800-
NORTHWEST WISCONSIN

CITY           SKY/WX    TMP DP  RH WIND       PRES   REMARKS
SUPERIOR ARPT  FAIR       6  -1  75 W8        30.33R WCI  -7
ASHLAND        MOCLDY     8   3  80 SW8       30.28R WCI  -4
HAYWARD        FAIR       8   2  76 VRB5      30.28R WCI   0
SIREN          FAIR       5  -1  76 W5        30.35R WCI  -4
CUMBERLAND     FAIR       5   0  78 W9        30.31R WCI  -9
RICE LAKE      FAIR       8   2  79 W6        30.34R WCI  -3
CHETEK         FAIR       9   3  77 W5        30.33R WCI   0
LADYSMITH      FAIR      11   7  82 W6        30.30R WCI   2
EAU CLAIRE     FAIR      11   4  73 W8        30.34R WCI  -1
MENOMONIE      FAIR      11   4  74 W12       30.36R WCI  -4
NEW RICHMOND   FAIR       6  -2  71 W5        30.36R WCI  -3
OSCEOLA        FAIR       6  -1  74 W6        30.40R WCI  -5
$$

WIZ003>005-009-010-017-018-210800-
NORTH CENTRAL WISCONSIN

CITY           SKY/WX    TMP DP  RH WIND       PRES   REMARKS
MANITOWISH WTR FLURRIES  10   7  91 W7        30.20R WCI  -2
ARBOR VITAE    MOCLDY    14  10  85 NW6       30.20R WCI   5
WOODRUFF       MOCLDY    14  10  85 NW6       30.20R WCI   5
RHINELANDER    FAIR      13   9  84 NW7       30.20R WCI   3
EAGLE RIVER    MOCLDY    13   7  79 NW8       30.18R WCI   1
LAND O LAKES   LGT SNOW  14  10  87 W7        30.19R WCI   3
PHILLIPS       FAIR      10   6  85 W3        30.23R
TOMAHAWK       FAIR      12   8  84 W7        30.23R WCI   1
MEDFORD        FAIR      11   8  84 W8        30.24R WCI   0
MERRILL        FAIR      15  10  80 NW5       30.24R WCI   7
$$

WIZ029-030-035-036-043>047-210800-
CENTRAL WISCONSIN

CITY           SKY/WX    TMP DP  RH WIND       PRES   REMARKS
WAUSAU         FAIR      16  10  77 NW10      30.23R WCI   4
MOSINEE        FAIR      16  12  86 W8        30.26R WCI   5
MARSHFIELD     FAIR      14   9  80 NW10      30.25R WCI   1
STEVENS POINT  FAIR      15  11  83 NW3       30.26R
WAUPACA        MOCLDY    22  15  71 NW10G17   30.27R WCI  12
WAUTOMA        FAIR      20  13  74 NW15      30.28R WCI   6
WISC RAPIDS    FAIR      18  10  71 NW12      30.29R WCI   5
CAMP DOUGLAS   FAIR      18  14  82 NW10      30.30R WCI   7
$$

WIZ011>013-019>022-031-037>040-048>050-210800-
NORTHEAST WISCONSIN

CITY           SKY/WX    TMP DP  RH WIND       PRES   REMARKS
ANTIGO         MOCLDY    15  10  83 NW9       30.20R WCI   3
SHAWANO        CLOUDY    24  17  74 NW12G17   30.24R WCI  13
OCONTO         CLOUDY    26  20  79 W12       30.22R WCI  15
STURGEON BAY   CLOUDY    28  22  78 NW14G20   30.20R WCI  17
GREEN BAY      CLOUDY    25  19  78 W15       30.23R WCI  13
MANITOWOC      CLOUDY    27  22  81 NW16      30.22R WCI  15
APPLETON       CLOUDY    23  14  68 NW17      30.23R WCI   9
CLINTONVILLE   CLOUDY    22  14  71 NW12G20   30.25R WCI  10
OSHKOSH        CLOUDY    22  15  75 W14       30.24R WCI   9
$$

WIZ032>034-041-042-053>061-210800-
SOUTHWEST WISCONSIN

CITY           SKY/WX    TMP DP  RH WIND       PRES   REMARKS
LA CROSSE      FAIR      17  10  74 NW12      30.37R WCI   4
SPARTA         FAIR      17  13  86 W7        30.35R WCI   7
VIROQUA        MOCLDY    16  14  93 NW8       30.29R WCI   5
BOSCOBEL       FAIR      21  13  71 NW8       30.34R WCI  11
PRAIRIE DU CHI FAIR      18  10  71 NW13      30.36R WCI   5
PLATTEVILLE    MOCLDY    21  17  85 NW12G18   30.31R WCI   9
$$

WIZ056-057-062-063-064-067-068-210800-
SOUTH CENTRAL WISCONSIN

CITY           SKY/WX    TMP DP  RH WIND       PRES   REMARKS
REEDSBURG      CLOUDY    21  15  79 NW9       30.29R WCI  11
BARABOO/DELLS  MOCLDY    21  12  69 N12G18    30.29R WCI   9
LONE ROCK      CLOUDY    23  17  78 NW10      30.32R WCI  12
MINERAL POINT  CLOUDY    23  21  93 NW12      30.28R WCI  12
MADISON        CLOUDY    23  17  78 N12       30.27R WCI  12
MIDDLETON      CLOUDY    26  21  82 NW13      30.28R WCI  14
WATERTOWN      CLOUDY    25  21  85 NW13      30.25R WCI  13
MONROE         CLOUDY    27  21  80 NW8       30.25R WCI  18
JANESVILLE     CLOUDY    30  27  86 N9        30.24R WCI  22
$$

WIZ051-052-058>065-066-070>072-210800-
SOUTHEAST WISCONSIN

CITY           SKY/WX    TMP DP  RH WIND       PRES   REMARKS
MILWAUKEE      CLOUDY    30  23  75 NW12      30.21R WCI  20
WAUKESHA       CLOUDY    27  21  80 NW10      30.24R WCI  17
MILWAUKEE/TIMM CLOUDY    28  19  69 NW16      30.24R WCI  17
RACINE         MOCLDY    30  25  81 NW10      30.22R WCI  21
BURLINGTON     MOCLDY    29  23  79 N8        30.23R WCI  21
KENOSHA        CLOUDY    31  24  75 NW9       30.21R WCI  23
FOND DU LAC    CLOUDY    24  15  68 NW16G25   30.25R WCI  11
SHEBOYGAN      CLOUDY    26  20  77 NW17G25   30.23R WCI  13
WEST BEND      CLOUDY    27  23  86 NW10      30.23R WCI  17
JUNEAU         CLOUDY    24  19  83 NW6G16    30.26R WCI  17
$$

LSZ147-162-210800-
LAKE SUPERIOR

STATION/POSITION TIME  TEMP    WIND        PRES    WAVE
                       AIR SEA DIR/SP/G            HT/PER
                 (UTC) (F)     (DEG/KT/KT) (MB)    (FT/S)
DEVILS ISLAND    0700   16     260/ 11/ 14 1026.0R
SAXON HARBOR     0630   14     220/  5/  9 1024.4R
$$

LMZ867-665-643>646-210800-
LAKE MICHIGAN

STATION/POSITION TIME  TEMP    WIND        PRES    WAVE
                       AIR SEA DIR/SP/G            HT/PER
                 (UTC) (F)     (DEG/KT/KT) (MB)    (FT/S)
NORTHPORT PIER   0640   27                 1021.7R
KEWAUNEE LAKESHO 0648   28     310/  9/ 14 1021.8R
SHEBOYGAN LAKESH 0700   27     300/ 16/ 19 1024.2R
PORT WASHINGTON  0640   29     310/  6/ 12 1024.4R
MILWAUKEE LAKESH 0650   29     310/  9/ 12   N/A
KENOSHA   LAKESH 0700   31     330/ 11/ 13 1023.0
$$

TC  - TEMPERATURE IN CELSIUS
VSB - VISIBILITY IN STATUTE MILES
WCI - WIND CHILL INDEX
HX  - HEAT INDEX





USA.gov is the U.S. government's official web portal to all federal, state and local government web resources and services.